Погода в Карлова Студанке

Чехия     50°04′26″N   17°18′27″E
темп.,
°C
ветер,
м/с
пор.,
м/с
влажн.,
%
обл.,
%
осадки,
мм/ч
давл.,
гПа
погр.,
м
1 августа, вс
вс123:00+15зсз0177100 0.0 101113
02:00+15ссз1173100 0.0 101111
05:00+14ююв1290100 0.9 101041
08:00+14всв2497100 7.6 1008164
11:00+14всв2398100 1.3 1007255
14:00+15в1297100 3.8 1006331
17:00+14с2497100 3.0 1006311
20:00+12с259694 3.1 1008380
2 августа, пн
пн223:00+11ссз2297100 0.0 100962
02:00+11з1297100 0.2 101074
05:00+11зюз1198100 0.3 101145
08:00+13з259275 0.3 1012393
11:00+18з355877 0.2 10121134
14:00+19з465835 1.0 10131623
17:00+17з46661 0.8 10131012
20:00+13з24905 1.2 1014104
3 августа, вт
вт323:00+11зсз11951 0.0 101613
02:00+10зсз11944 0.0 101712
05:00+9зсз11941 0.0 101711
08:00+14зюз11725 0.0 1017206
11:00+18юз33525 0.0 10171148
14:00+20юз345256 0.1 10151737
17:00+20ююз244999 0.1 10141461
20:00+16юв1173100 0.1 101411
4 августа, ср
ср423:00+12зсз41193100 2.3 1017456
02:00+12юз118976 2.9 101623
05:00+11юз1195100 0.0 101515
08:00+14зюз128892 0.0 1015137
11:00+19зюз2355100 0.0 10151011
14:00+20зюз2452100 0.0 10141052
17:00+20зюз2255100 0.0 10141032
20:00+16с2177100 0.0 101415
5 августа, чт
чт523:00+14ссв348278 0.0 101485
02:00+13с2386100 0.0 101373
05:00+12ссв3698100 4.6 1012262
08:00+12ссз2498100 11.5 1012237
11:00+12з0198100 1.9 101399
14:00+14юз1192100 2.2 1012430
17:00+16з238075 1.1 1011802
20:00+14сз228623 1.4 101034